Time,TemperatureF,DewpointF,PressureIn,WindDirection,WindDirectionDegrees,WindSpeedMPH,WindSpeedGustMPH,Humidity,HourlyPrecipIn,Conditions,Clouds,dailyrainin,SoftwareType,DateUTC
2013-06-10 00:01:00,68.2,65.5,29.84,SE,135,3.0,5.0,91,0.00,,,0.00,Wunderground v.1.15,2013-06-10 04:01:00,
2013-06-10 00:03:00,68.3,65.6,29.84,SSW,197,4.0,5.0,91,0.00,,,0.00,Wunderground v.1.15,2013-06-10 04:03:00,
2013-06-10 00:05:00,68.3,65.6,29.84,SSE,155,4.0,8.0,91,0.00,,,0.00,Wunderground v.1.15,2013-06-10 04:05:00,
2013-06-10 00:06:00,68.3,65.6,29.84,ESE,110,4.0,8.0,91,0.00,,,0.00,Wunderground v.1.15,2013-06-10 04:06:00,
2013-06-10 00:12:00,68.2,65.5,29.84,ESE,117,3.0,5.0,91,0.20,,,0.02,Wunderground v.1.15,2013-06-10 04:12:00,
2013-06-10 00:14:00,68.1,65.4,29.84,SE,124,3.0,5.0,91,0.20,,,0.03,Wunderground v.1.15,2013-06-10 04:14:00,
2013-06-10 00:20:00,67.9,65.5,29.84,SSW,203,3.0,3.0,92,0.18,,,0.05,Wunderground v.1.15,2013-06-10 04:20:00,
2013-06-10 00:25:00,67.7,65.3,29.84,ESE,115,4.0,8.0,92,0.26,,,0.07,Wunderground v.1.15,2013-06-10 04:25:00,
2013-06-10 00:31:00,67.5,65.4,29.84,SE,136,4.0,5.0,93,0.27,,,0.10,Wunderground v.1.15,2013-06-10 04:31:00,
2013-06-10 00:37:00,67.4,65.3,29.85,SE,138,3.0,5.0,93,0.25,,,0.12,Wunderground v.1.15,2013-06-10 04:37:00,
2013-06-10 00:43:00,67.3,65.5,29.85,SE,145,3.0,5.0,94,0.17,,,0.14,Wunderground v.1.15,2013-06-10 04:43:00,
2013-06-10 00:49:00,67.3,65.5,29.84,SE,138,3.0,5.0,94,0.15,,,0.15,Wunderground v.1.15,2013-06-10 04:49:00,
2013-06-10 00:55:00,67.3,65.5,29.84,SE,131,3.0,7.0,94,0.16,,,0.17,Wunderground v.1.15,2013-06-10 04:55:00,
2013-06-10 01:00:00,67.2,65.4,29.84,SSE,167,3.0,3.0,94,0.09,,,0.18,Wunderground v.1.15,2013-06-10 05:00:00,
2013-06-10 01:06:00,67.2,65.7,29.84,SE,125,3.0,5.0,95,0.34,,,0.20,Wunderground v.1.15,2013-06-10 05:06:00,
2013-06-10 01:12:00,67.2,65.7,29.84,SE,138,2.0,5.0,95,0.42,,,0.28,Wunderground v.1.15,2013-06-10 05:12:00,
2013-06-10 01:18:00,67.2,65.7,29.83,ENE,63,2.0,5.0,95,0.28,,,0.31,Wunderground v.1.15,2013-06-10 05:18:00,
2013-06-10 01:24:00,67.1,65.6,29.83,ESE,117,3.0,9.0,95,0.33,,,0.35,Wunderground v.1.15,2013-06-10 05:24:00,
2013-06-10 01:29:00,67.1,65.9,29.83,SSE,148,4.0,9.0,96,0.34,,,0.38,Wunderground v.1.15,2013-06-10 05:29:00,
2013-06-10 01:35:00,67.1,65.9,29.82,SE,124,4.0,5.0,96,0.11,,,0.39,Wunderground v.1.15,2013-06-10 05:35:00,
2013-06-10 01:42:00,67.0,65.8,29.82,SE,139,3.0,5.0,96,0.13,,,0.40,Wunderground v.1.15,2013-06-10 05:42:00,
2013-06-10 01:47:00,66.9,65.7,29.82,NE,46,4.0,5.0,96,0.36,,,0.42,Wunderground v.1.15,2013-06-10 05:47:00,
2013-06-10 01:53:00,66.4,64.9,29.80,ESE,107,3.0,5.0,95,0.28,,,0.46,Wunderground v.1.15,2013-06-10 05:53:00,
2013-06-10 01:59:00,65.5,63.7,29.80,SE,125,1.0,5.0,94,0.13,,,0.48,Wunderground v.1.15,2013-06-10 05:59:00,
2013-06-10 02:05:00,65.1,63.0,29.82,SE,125,2.0,5.0,93,0.13,,,0.49,Wunderground v.1.15,2013-06-10 06:05:00,
2013-06-10 02:11:00,64.9,62.5,29.81,SSW,200,4.0,5.0,92,0.14,,,0.51,Wunderground v.1.15,2013-06-10 06:11:00,
2013-06-10 02:17:00,64.5,62.1,29.81,SSE,165,3.0,5.0,92,0.22,,,0.52,Wunderground v.1.15,2013-06-10 06:17:00,
2013-06-10 02:22:00,64.1,61.7,29.82,SE,139,3.0,7.0,92,0.49,,,0.57,Wunderground v.1.15,2013-06-10 06:22:00,
2013-06-10 02:28:00,63.6,61.5,29.83,SSW,193,5.0,7.0,93,1.21,,,0.63,Wunderground v.1.15,2013-06-10 06:28:00,
2013-06-10 02:34:00,63.3,61.2,29.81,WSW,252,4.0,5.0,93,0.24,,,0.67,Wunderground v.1.15,2013-06-10 06:34:00,
2013-06-10 02:40:00,63.3,61.5,29.81,SW,226,5.0,5.0,94,1.62,,,0.73,Wunderground v.1.15,2013-06-10 06:40:00,
2013-06-10 02:45:00,63.1,61.3,29.81,SSW,200,4.0,5.0,94,0.41,,,0.79,Wunderground v.1.15,2013-06-10 06:45:00,
2013-06-10 02:51:00,62.9,61.4,29.80,SE,140,1.0,5.0,95,0.13,,,0.81,Wunderground v.1.15,2013-06-10 06:51:00,
2013-06-10 02:57:00,62.9,61.4,29.79,SE,138,1.0,5.0,95,0.18,,,0.83,Wunderground v.1.15,2013-06-10 06:57:00,
2013-06-10 03:03:00,62.8,61.3,29.80,SE,132,0.0,5.0,95,0.24,,,0.84,Wunderground v.1.15,2013-06-10 07:03:00,
2013-06-10 03:09:00,62.8,61.3,29.79,NE,56,0.0,5.0,95,0.27,,,0.86,Wunderground v.1.15,2013-06-10 07:09:00,
2013-06-10 03:15:00,62.8,61.3,29.79,NE,53,1.0,5.0,95,0.20,,,0.89,Wunderground v.1.15,2013-06-10 07:15:00,
2013-06-10 03:20:00,62.8,61.6,29.79,South,174,1.0,1.0,96,0.35,,,0.92,Wunderground v.1.15,2013-06-10 07:20:00,
2013-06-10 03:27:00,62.7,61.5,29.79,NE,41,2.0,5.0,96,0.64,,,1.05,Wunderground v.1.15,2013-06-10 07:27:00,
2013-06-10 03:32:00,62.6,61.4,29.80,SSW,207,2.0,5.0,96,0.28,,,1.09,Wunderground v.1.15,2013-06-10 07:32:00,
2013-06-10 03:38:00,62.6,61.4,29.79,SE,144,2.0,5.0,96,0.20,,,1.11,Wunderground v.1.15,2013-06-10 07:38:00,
2013-06-10 03:44:00,62.6,61.4,29.79,SE,128,2.0,5.0,96,0.13,,,1.12,Wunderground v.1.15,2013-06-10 07:44:00,
2013-06-10 03:49:00,62.6,61.4,29.79,SE,131,1.0,5.0,96,0.14,,,1.13,Wunderground v.1.15,2013-06-10 07:49:00,
2013-06-10 03:55:00,62.7,61.5,29.78,SE,128,1.0,5.0,96,0.07,,,1.14,Wunderground v.1.15,2013-06-10 07:55:00,
2013-06-10 04:00:00,62.8,61.9,29.78,NW,307,0.0,5.0,97,0.07,,,1.14,Wunderground v.1.15,2013-06-10 08:00:00,
2013-06-10 04:06:00,62.8,61.9,29.78,SE,135,0.0,5.0,97,0.21,,,1.16,Wunderground v.1.15,2013-06-10 08:06:00,
2013-06-10 04:12:00,62.9,62.0,29.78,SE,127,0.0,5.0,97,0.27,,,1.18,Wunderground v.1.15,2013-06-10 08:12:00,
2013-06-10 04:17:00,63.1,62.2,29.77,SSE,148,0.0,5.0,97,0.14,,,1.19,Wunderground v.1.15,2013-06-10 08:17:00,
2013-06-10 04:23:00,63.2,62.3,29.77,SE,136,1.0,5.0,97,0.12,,,1.20,Wunderground v.1.15,2013-06-10 08:23:00,
2013-06-10 04:28:00,63.3,62.4,29.77,NE,48,1.0,5.0,97,0.06,,,1.20,Wunderground v.1.15,2013-06-10 08:28:00,
2013-06-10 04:34:00,63.4,62.5,29.76,NE,47,2.0,5.0,97,0.04,,,1.20,Wunderground v.1.15,2013-06-10 08:34:00,
2013-06-10 04:40:00,63.5,62.6,29.76,NW,314,1.0,1.0,97,0.00,,,1.20,Wunderground v.1.15,2013-06-10 08:40:00,
2013-06-10 04:45:00,63.6,62.7,29.76,NE,44,1.0,5.0,97,0.00,,,1.20,Wunderground v.1.15,2013-06-10 08:45:00,
2013-06-10 04:51:00,63.8,62.9,29.76,NE,46,1.0,5.0,97,0.00,,,1.20,Wunderground v.1.15,2013-06-10 08:51:00,
2013-06-10 04:57:00,63.9,63.0,29.76,NE,44,1.0,5.0,97,0.00,,,1.20,Wunderground v.1.15,2013-06-10 08:57:00,
2013-06-10 05:02:00,63.9,63.0,29.76,ESE,117,1.0,5.0,97,0.00,,,1.20,Wunderground v.1.15,2013-06-10 09:02:00,
2013-06-10 05:08:00,63.9,63.0,29.76,SSE,148,1.0,5.0,97,0.00,,,1.20,Wunderground v.1.15,2013-06-10 09:08:00,
2013-06-10 05:14:00,63.9,63.0,29.76,SSE,148,0.0,5.0,97,0.00,,,1.20,Wunderground v.1.15,2013-06-10 09:14:00,
2013-06-10 05:20:00,64.0,63.1,29.75,ESE,108,0.0,5.0,97,0.00,,,1.20,Wunderground v.1.15,2013-06-10 09:20:00,
2013-06-10 05:26:00,64.0,63.1,29.75,ENE,59,0.0,5.0,97,0.00,,,1.20,Wunderground v.1.15,2013-06-10 09:26:00,
2013-06-10 05:32:00,64.1,63.2,29.75,WSW,245,1.0,5.0,97,0.00,,,1.20,Wunderground v.1.15,2013-06-10 09:32:00,
2013-06-10 05:38:00,64.1,63.2,29.75,SE,136,1.0,5.0,97,0.00,,,1.20,Wunderground v.1.15,2013-06-10 09:38:00,
2013-06-10 05:44:00,64.2,63.3,29.75,SSE,148,1.0,5.0,97,0.00,,,1.20,Wunderground v.1.15,2013-06-10 09:44:00,
2013-06-10 05:49:00,64.3,63.4,29.75,SE,143,1.0,5.0,97,0.00,,,1.20,Wunderground v.1.15,2013-06-10 09:49:00,
2013-06-10 05:55:00,64.4,63.5,29.75,SSW,199,2.0,5.0,97,0.00,,,1.20,Wunderground v.1.15,2013-06-10 09:55:00,
2013-06-10 06:00:00,64.5,63.6,29.75,SSE,153,2.0,5.0,97,0.00,,,1.20,Wunderground v.1.15,2013-06-10 10:00:00,
2013-06-10 06:06:00,64.6,63.7,29.75,SSE,156,3.0,5.0,97,0.00,,,1.20,Wunderground v.1.15,2013-06-10 10:06:00,
2013-06-10 06:12:00,64.7,63.8,29.75,SSE,148,4.0,6.0,97,0.00,,,1.20,Wunderground v.1.15,2013-06-10 10:12:00,
2013-06-10 06:18:00,64.7,63.8,29.76,SSE,159,4.0,6.0,97,0.00,,,1.20,Wunderground v.1.15,2013-06-10 10:18:00,
2013-06-10 06:24:00,64.7,63.8,29.76,SSE,159,4.0,7.0,97,0.00,,,1.20,Wunderground v.1.15,2013-06-10 10:24:00,
2013-06-10 06:30:00,64.7,63.8,29.76,SSE,162,5.0,5.0,97,0.00,,,1.20,Wunderground v.1.15,2013-06-10 10:30:00,
2013-06-10 06:35:00,64.7,63.8,29.77,SE,143,5.0,7.0,97,0.00,,,1.20,Wunderground v.1.15,2013-06-10 10:35:00,
2013-06-10 06:41:00,64.7,63.8,29.77,SSE,159,5.0,7.0,97,0.00,,,1.20,Wunderground v.1.15,2013-06-10 10:41:00,
2013-06-10 06:47:00,64.5,63.3,29.77,SSE,168,6.0,7.0,96,0.00,,,1.20,Wunderground v.1.15,2013-06-10 10:47:00,
2013-06-10 06:53:00,64.5,63.3,29.77,SSW,200,5.0,6.0,96,0.00,,,1.20,Wunderground v.1.15,2013-06-10 10:53:00,
2013-06-10 06:59:00,64.5,63.0,29.77,SSE,165,5.0,7.0,95,0.00,,,1.20,Wunderground v.1.15,2013-06-10 10:59:00,
2013-06-10 07:05:00,64.5,63.0,29.77,South,183,6.0,9.0,95,0.00,,,1.20,Wunderground v.1.15,2013-06-10 11:05:00,
2013-06-10 07:10:00,64.5,63.0,29.77,SSE,166,5.0,6.0,95,0.00,,,1.20,Wunderground v.1.15,2013-06-10 11:10:00,
2013-06-10 07:16:00,64.5,63.0,29.77,SSE,165,5.0,7.0,95,0.00,,,1.20,Wunderground v.1.15,2013-06-10 11:16:00,
2013-06-10 07:22:00,64.4,62.9,29.77,South,190,5.0,8.0,95,0.00,,,1.21,Wunderground v.1.15,2013-06-10 11:22:00,
2013-06-10 07:28:00,64.5,63.0,29.77,SE,138,5.0,8.0,95,0.00,,,1.21,Wunderground v.1.15,2013-06-10 11:28:00,
2013-06-10 07:33:00,64.5,63.0,29.77,SSW,200,6.0,8.0,95,0.00,,,1.21,Wunderground v.1.15,2013-06-10 11:33:00,
2013-06-10 07:39:00,64.5,63.0,29.77,South,173,5.0,8.0,95,0.00,,,1.21,Wunderground v.1.15,2013-06-10 11:39:00,
2013-06-10 07:45:00,64.5,63.0,29.77,South,177,5.0,8.0,95,0.00,,,1.21,Wunderground v.1.15,2013-06-10 11:45:00,
2013-06-10 07:51:00,64.6,63.1,29.77,SE,145,5.0,5.0,95,0.00,,,1.21,Wunderground v.1.15,2013-06-10 11:51:00,
2013-06-10 07:57:00,64.7,63.5,29.77,SW,219,4.0,5.0,96,0.00,,,1.21,Wunderground v.1.15,2013-06-10 11:57:00,
2013-06-10 08:03:00,64.7,63.2,29.77,South,188,4.0,6.0,95,0.00,,,1.21,Wunderground v.1.15,2013-06-10 12:03:00,
2013-06-10 08:09:00,64.8,63.6,29.77,SW,235,5.0,7.0,96,0.00,,,1.21,Wunderground v.1.15,2013-06-10 12:09:00,
2013-06-10 08:14:00,64.9,63.7,29.78,SSW,204,4.0,7.0,96,0.00,,,1.21,Wunderground v.1.15,2013-06-10 12:14:00,
2013-06-10 08:20:00,65.0,63.8,29.78,SW,218,5.0,5.0,96,0.00,,,1.21,Wunderground v.1.15,2013-06-10 12:20:00,
2013-06-10 08:26:00,65.1,63.6,29.78,SW,226,5.0,8.0,95,0.00,,,1.21,Wunderground v.1.15,2013-06-10 12:26:00,
2013-06-10 08:32:00,65.1,63.6,29.78,SSW,200,5.0,6.0,95,0.00,,,1.21,Wunderground v.1.15,2013-06-10 12:32:00,
2013-06-10 08:38:00,65.1,63.6,29.78,SW,221,5.0,6.0,95,0.00,,,1.21,Wunderground v.1.15,2013-06-10 12:38:00,
2013-06-10 08:44:00,65.2,63.7,29.78,SSW,197,5.0,6.0,95,0.00,,,1.21,Wunderground v.1.15,2013-06-10 12:44:00,
2013-06-10 08:49:00,65.2,63.7,29.78,SSW,201,4.0,6.0,95,0.00,,,1.21,Wunderground v.1.15,2013-06-10 12:49:00,
2013-06-10 08:55:00,65.3,63.8,29.78,WSW,238,5.0,9.0,95,0.00,,,1.21,Wunderground v.1.15,2013-06-10 12:55:00,
2013-06-10 09:00:00,65.4,63.9,29.78,SW,231,7.0,7.0,95,0.00,,,1.21,Wunderground v.1.15,2013-06-10 13:00:00,
2013-06-10 09:06:00,65.6,63.8,29.78,SSW,210,6.0,9.0,94,0.00,,,1.21,Wunderground v.1.15,2013-06-10 13:06:00,
2013-06-10 09:12:00,65.9,64.1,29.79,SW,229,6.0,9.0,94,0.00,,,1.21,Wunderground v.1.15,2013-06-10 13:12:00,
2013-06-10 09:18:00,66.0,64.2,29.78,SW,218,6.0,9.0,94,0.00,,,1.21,Wunderground v.1.15,2013-06-10 13:18:00,
2013-06-10 09:24:00,66.1,64.0,29.78,SW,218,5.0,6.0,93,0.00,,,1.21,Wunderground v.1.15,2013-06-10 13:24:00,
2013-06-10 09:30:00,66.4,64.3,29.78,SW,214,6.0,6.0,93,0.00,,,1.21,Wunderground v.1.15,2013-06-10 13:30:00,
2013-06-10 09:36:00,66.6,64.5,29.78,SW,214,6.0,7.0,93,0.00,,,1.21,Wunderground v.1.15,2013-06-10 13:36:00,
2013-06-10 09:41:00,67.3,64.9,29.78,NNE,16,5.0,5.0,92,0.00,,,1.21,Wunderground v.1.15,2013-06-10 13:41:00,
2013-06-10 09:47:00,67.6,64.6,29.78,WSW,245,6.0,10.0,90,0.00,,,1.21,Wunderground v.1.15,2013-06-10 13:47:00,
2013-06-10 09:53:00,67.7,64.3,29.78,SSW,212,6.0,7.0,89,0.00,,,1.21,Wunderground v.1.15,2013-06-10 13:53:00,
2013-06-10 09:59:00,68.1,64.7,29.78,WSW,246,5.0,7.0,89,0.00,,,1.21,Wunderground v.1.15,2013-06-10 13:59:00,
2013-06-10 10:05:00,68.1,63.8,29.78,SW,221,7.0,13.0,86,0.00,,,1.21,Wunderground v.1.15,2013-06-10 14:05:00,
2013-06-10 10:11:00,68.2,64.2,29.78,SSW,212,8.0,8.0,87,0.00,,,1.21,Wunderground v.1.15,2013-06-10 14:11:00,
2013-06-10 10:17:00,68.5,64.1,29.78,SW,233,6.0,9.0,86,0.00,,,1.21,Wunderground v.1.15,2013-06-10 14:17:00,
2013-06-10 10:23:00,68.8,64.1,29.78,SSW,195,6.0,8.0,85,0.00,,,1.21,Wunderground v.1.15,2013-06-10 14:23:00,
2013-06-10 10:28:00,69.5,64.8,29.78,SSW,203,7.0,8.0,85,0.00,,,1.21,Wunderground v.1.15,2013-06-10 14:28:00,
2013-06-10 10:34:00,70.4,64.3,29.78,SSE,168,7.0,8.0,81,0.00,,,1.21,Wunderground v.1.15,2013-06-10 14:34:00,
2013-06-10 10:39:00,70.8,65.7,29.78,South,181,7.0,10.0,84,0.00,,,1.21,Wunderground v.1.15,2013-06-10 14:39:00,
2013-06-10 10:45:00,71.2,65.4,29.78,NE,51,5.0,6.0,82,0.00,,,1.21,Wunderground v.1.15,2013-06-10 14:45:00,
2013-06-10 10:51:00,71.2,64.7,29.78,WSW,257,5.0,7.0,80,0.00,,,1.21,Wunderground v.1.15,2013-06-10 14:51:00,
2013-06-10 10:57:00,71.5,64.6,29.78,SW,224,6.0,7.0,79,0.00,,,1.21,Wunderground v.1.15,2013-06-10 14:57:00,
2013-06-10 11:03:00,71.9,64.3,29.77,SW,233,6.0,11.0,77,0.00,,,1.21,Wunderground v.1.15,2013-06-10 15:03:00,
2013-06-10 11:09:00,71.6,64.4,29.77,WSW,256,7.0,11.0,78,0.00,,,1.21,Wunderground v.1.15,2013-06-10 15:09:00,
2013-06-10 11:15:00,71.1,63.1,29.77,SW,231,8.0,11.0,76,0.00,,,1.21,Wunderground v.1.15,2013-06-10 15:15:00,
2013-06-10 11:21:00,71.2,63.6,29.78,SSW,204,7.0,8.0,77,0.00,,,1.21,Wunderground v.1.15,2013-06-10 15:21:00,
2013-06-10 11:27:00,71.0,63.1,29.78,WSW,240,8.0,13.0,76,0.00,,,1.21,Wunderground v.1.15,2013-06-10 15:27:00,
2013-06-10 11:32:00,70.8,63.2,29.78,SW,220,9.0,14.0,77,0.00,,,1.21,Wunderground v.1.15,2013-06-10 15:32:00,
2013-06-10 11:38:00,71.1,63.1,29.78,SSW,212,8.0,14.0,76,0.00,,,1.21,Wunderground v.1.15,2013-06-10 15:38:00,
2013-06-10 11:44:00,71.4,63.1,29.78,South,181,8.0,12.0,75,0.00,,,1.21,Wunderground v.1.15,2013-06-10 15:44:00,
2013-06-10 11:50:00,71.6,64.0,29.79,SSW,200,8.0,8.0,77,0.00,,,1.21,Wunderground v.1.15,2013-06-10 15:50:00,
2013-06-10 11:56:00,71.8,63.8,29.79,WSW,252,6.0,9.0,76,0.00,,,1.21,Wunderground v.1.15,2013-06-10 15:56:00,
2013-06-10 12:02:00,71.8,63.8,29.78,West,273,7.0,8.0,76,0.00,,,1.21,Wunderground v.1.15,2013-06-10 16:02:00,
2013-06-10 12:08:00,72.3,63.9,29.78,SW,215,7.0,10.0,75,0.00,,,1.21,Wunderground v.1.15,2013-06-10 16:08:00,
2013-06-10 12:13:00,72.7,63.9,29.78,SW,226,8.0,11.0,74,0.00,,,1.21,Wunderground v.1.15,2013-06-10 16:13:00,
2013-06-10 12:19:00,72.9,64.1,29.78,SSW,212,8.0,11.0,74,0.00,,,1.21,Wunderground v.1.15,2013-06-10 16:19:00,
2013-06-10 12:25:00,73.1,64.3,29.78,SW,221,7.0,11.0,74,0.00,,,1.21,Wunderground v.1.15,2013-06-10 16:25:00,
2013-06-10 12:31:00,73.6,64.8,29.78,SSW,203,8.0,10.0,74,0.00,,,1.21,Wunderground v.1.15,2013-06-10 16:31:00,
2013-06-10 12:37:00,74.0,63.6,29.78,WSW,240,8.0,10.0,70,0.00,,,1.21,Wunderground v.1.15,2013-06-10 16:37:00,
2013-06-10 12:42:00,74.3,63.9,29.78,SW,232,9.0,14.0,70,0.00,,,1.21,Wunderground v.1.15,2013-06-10 16:42:00,
2013-06-10 12:48:00,74.8,64.4,29.77,SW,235,11.0,14.0,70,0.00,,,1.21,Wunderground v.1.15,2013-06-10 16:48:00,
2013-06-10 12:54:00,75.1,63.4,29.77,SW,215,10.0,19.0,67,0.00,,,1.21,Wunderground v.1.15,2013-06-10 16:54:00,
2013-06-10 13:00:00,74.6,63.8,29.77,SW,229,11.0,15.0,69,0.00,,,1.21,Wunderground v.1.15,2013-06-10 17:00:00,
2013-06-10 13:06:00,73.9,64.3,29.77,WNW,298,10.0,15.0,72,0.00,,,1.21,Wunderground v.1.15,2013-06-10 17:06:00,
2013-06-10 13:12:00,74.4,64.8,29.77,WSW,250,9.0,16.0,72,0.00,,,1.21,Wunderground v.1.15,2013-06-10 17:12:00,
2013-06-10 13:18:00,74.0,63.6,29.77,SW,214,11.0,16.0,70,0.00,,,1.21,Wunderground v.1.15,2013-06-10 17:18:00,
2013-06-10 13:24:00,73.9,63.5,29.77,SW,230,11.0,16.0,70,0.00,,,1.21,Wunderground v.1.15,2013-06-10 17:24:00,
2013-06-10 13:30:00,74.2,63.8,29.77,SW,225,11.0,11.0,70,0.00,,,1.21,Wunderground v.1.15,2013-06-10 17:30:00,
2013-06-10 13:36:00,74.4,64.4,29.76,SSE,158,11.0,19.0,71,0.00,,,1.21,Wunderground v.1.15,2013-06-10 17:36:00,
2013-06-10 13:42:00,75.0,65.4,29.76,NW,314,10.0,12.0,72,0.00,,,1.21,Wunderground v.1.15,2013-06-10 17:42:00,
2013-06-10 13:47:00,75.3,64.8,29.76,SW,218,9.0,13.0,70,0.00,,,1.21,Wunderground v.1.15,2013-06-10 17:47:00,
2013-06-10 13:53:00,75.4,64.1,29.77,SW,221,11.0,15.0,68,0.00,,,1.21,Wunderground v.1.15,2013-06-10 17:53:00,
2013-06-10 13:59:00,75.5,65.0,29.77,SW,226,10.0,15.0,70,0.00,,,1.21,Wunderground v.1.15,2013-06-10 17:59:00,
2013-06-10 14:04:00,75.5,66.2,29.77,WSW,239,10.0,16.0,73,0.00,,,1.21,Wunderground v.1.15,2013-06-10 18:04:00,
2013-06-10 14:10:00,75.4,64.1,29.77,SW,235,9.0,9.0,68,0.00,,,1.21,Wunderground v.1.15,2013-06-10 18:10:00,
2013-06-10 14:15:00,75.5,65.0,29.77,WSW,239,8.0,9.0,70,0.00,,,1.21,Wunderground v.1.15,2013-06-10 18:15:00,
2013-06-10 14:20:00,75.5,64.2,29.77,WNW,284,7.0,7.0,68,0.00,,,1.21,Wunderground v.1.15,2013-06-10 18:20:00,
2013-06-10 14:26:00,75.4,63.2,29.77,WSW,247,8.0,15.0,66,0.00,,,1.21,Wunderground v.1.15,2013-06-10 18:26:00,
2013-06-10 14:32:00,75.3,63.6,29.77,SW,231,9.0,11.0,67,0.00,,,1.21,Wunderground v.1.15,2013-06-10 18:32:00,
2013-06-10 14:38:00,75.4,64.1,29.77,WSW,240,9.0,12.0,68,0.00,,,1.21,Wunderground v.1.15,2013-06-10 18:38:00,
2013-06-10 14:44:00,75.5,64.6,29.77,SSE,165,9.0,14.0,69,0.00,,,1.21,Wunderground v.1.15,2013-06-10 18:44:00,
2013-06-10 14:50:00,74.9,64.0,29.77,SSW,212,9.0,9.0,69,0.00,,,1.21,Wunderground v.1.15,2013-06-10 18:50:00,
2013-06-10 14:56:00,74.9,63.2,29.76,SW,229,9.0,13.0,67,0.00,,,1.21,Wunderground v.1.15,2013-06-10 18:56:00,
2013-06-10 15:02:00,75.2,64.3,29.76,SW,219,9.0,10.0,69,0.00,,,1.21,Wunderground v.1.15,2013-06-10 19:02:00,
2013-06-10 15:07:00,75.2,61.7,29.76,SW,233,9.0,17.0,63,0.00,,,1.21,Wunderground v.1.15,2013-06-10 19:07:00,
2013-06-10 15:13:00,75.1,63.0,29.76,SW,236,11.0,12.0,66,0.00,,,1.21,Wunderground v.1.15,2013-06-10 19:13:00,
2013-06-10 15:19:00,75.0,62.0,29.76,SSW,212,12.0,16.0,64,0.00,,,1.21,Wunderground v.1.15,2013-06-10 19:19:00,
2013-06-10 15:25:00,75.7,63.1,29.76,SW,235,11.0,15.0,65,0.00,,,1.21,Wunderground v.1.15,2013-06-10 19:25:00,
2013-06-10 15:31:00,76.4,64.2,29.76,SW,229,9.0,10.0,66,0.00,,,1.21,Wunderground v.1.15,2013-06-10 19:31:00,
2013-06-10 15:37:00,76.4,63.8,29.76,SW,236,8.0,14.0,65,0.00,,,1.21,Wunderground v.1.15,2013-06-10 19:37:00,
2013-06-10 15:43:00,75.7,64.0,29.77,WSW,255,8.0,9.0,67,0.00,,,1.21,Wunderground v.1.15,2013-06-10 19:43:00,
2013-06-10 15:49:00,75.4,63.7,29.76,WSW,243,9.0,12.0,67,0.00,,,1.21,Wunderground v.1.15,2013-06-10 19:49:00,
2013-06-10 15:55:00,75.7,64.0,29.76,WSW,252,9.0,11.0,67,0.00,,,1.21,Wunderground v.1.15,2013-06-10 19:55:00,
2013-06-10 16:00:00,75.8,64.1,29.76,WSW,250,8.0,10.0,67,0.00,,,1.21,Wunderground v.1.15,2013-06-10 20:00:00,
2013-06-10 16:07:00,75.6,64.3,29.76,SSW,205,8.0,10.0,68,0.00,,,1.21,Wunderground v.1.15,2013-06-10 20:07:00,
2013-06-10 16:12:00,75.7,64.8,29.76,WSW,246,8.0,9.0,69,0.00,,,1.21,Wunderground v.1.15,2013-06-10 20:12:00,
2013-06-10 16:18:00,76.7,65.8,29.76,West,270,8.0,15.0,69,0.00,,,1.21,Wunderground v.1.15,2013-06-10 20:18:00,
2013-06-10 16:24:00,76.5,63.9,29.76,WSW,257,9.0,12.0,65,0.00,,,1.21,Wunderground v.1.15,2013-06-10 20:24:00,
2013-06-10 16:30:00,76.7,63.6,29.76,West,259,8.0,8.0,64,0.00,,,1.21,Wunderground v.1.15,2013-06-10 20:30:00,
2013-06-10 16:36:00,76.7,64.0,29.76,SW,231,8.0,11.0,65,0.00,,,1.21,Wunderground v.1.15,2013-06-10 20:36:00,
2013-06-10 16:42:00,76.5,63.9,29.76,SW,229,9.0,13.0,65,0.00,,,1.21,Wunderground v.1.15,2013-06-10 20:42:00,
2013-06-10 16:48:00,76.1,63.9,29.76,WNW,288,9.0,14.0,66,0.00,,,1.21,Wunderground v.1.15,2013-06-10 20:48:00,
2013-06-10 16:54:00,76.0,64.7,29.76,SSW,200,9.0,9.0,68,0.00,,,1.21,Wunderground v.1.15,2013-06-10 20:54:00,
2013-06-10 17:00:00,75.9,63.7,29.76,South,179,8.0,11.0,66,0.00,,,1.21,Wunderground v.1.15,2013-06-10 21:00:00,
2013-06-10 17:06:00,75.9,64.2,29.76,SW,233,10.0,13.0,67,0.00,,,1.21,Wunderground v.1.15,2013-06-10 21:06:00,
2013-06-10 17:12:00,75.9,63.7,29.76,West,277,9.0,10.0,66,0.00,,,1.21,Wunderground v.1.15,2013-06-10 21:12:00,
2013-06-10 17:17:00,75.8,64.1,29.76,South,176,8.0,10.0,67,0.00,,,1.21,Wunderground v.1.15,2013-06-10 21:17:00,
2013-06-10 17:23:00,75.7,64.0,29.76,SW,236,7.0,12.0,67,0.00,,,1.21,Wunderground v.1.15,2013-06-10 21:23:00,
2013-06-10 17:28:00,75.5,63.8,29.76,SSW,197,8.0,12.0,67,0.00,,,1.21,Wunderground v.1.15,2013-06-10 21:28:00,
2013-06-10 17:34:00,75.7,64.4,29.75,South,191,7.0,8.0,68,0.00,,,1.21,Wunderground v.1.15,2013-06-10 21:34:00,
2013-06-10 17:40:00,76.1,65.6,29.75,NNW,347,7.0,7.0,70,0.00,,,1.21,Wunderground v.1.15,2013-06-10 21:40:00,
2013-06-10 17:45:00,76.3,64.1,29.75,WNW,300,8.0,8.0,66,0.00,,,1.21,Wunderground v.1.15,2013-06-10 21:45:00,
2013-06-10 17:50:00,76.5,65.1,29.75,NW,319,7.0,7.0,68,0.00,,,1.21,Wunderground v.1.15,2013-06-10 21:50:00,
2013-06-10 17:56:00,76.3,63.7,29.75,SW,231,6.0,11.0,65,0.00,,,1.21,Wunderground v.1.15,2013-06-10 21:56:00,
2013-06-10 18:02:00,76.2,64.0,29.75,SW,232,5.0,7.0,66,0.00,,,1.21,Wunderground v.1.15,2013-06-10 22:02:00,
2013-06-10 18:08:00,76.2,64.9,29.75,West,281,4.0,7.0,68,0.00,,,1.21,Wunderground v.1.15,2013-06-10 22:08:00,
2013-06-10 18:14:00,76.2,64.0,29.75,West,276,4.0,5.0,66,0.00,,,1.21,Wunderground v.1.15,2013-06-10 22:14:00,
2013-06-10 18:20:00,77.0,63.9,29.76,WSW,248,4.0,5.0,64,0.00,,,1.21,Wunderground v.1.15,2013-06-10 22:20:00,
2013-06-10 18:26:00,77.1,64.0,29.76,NW,309,5.0,8.0,64,0.00,,,1.21,Wunderground v.1.15,2013-06-10 22:26:00,
2013-06-10 18:31:00,76.7,63.2,29.76,South,179,5.0,8.0,63,0.00,,,1.21,Wunderground v.1.15,2013-06-10 22:31:00,
2013-06-10 18:37:00,76.3,62.8,29.76,West,277,6.0,8.0,63,0.00,,,1.21,Wunderground v.1.15,2013-06-10 22:37:00,
2013-06-10 18:42:00,76.1,63.5,29.76,WSW,246,6.0,6.0,65,0.00,,,1.21,Wunderground v.1.15,2013-06-10 22:42:00,
2013-06-10 18:48:00,75.7,63.1,29.76,NW,307,5.0,7.0,65,0.00,,,1.21,Wunderground v.1.15,2013-06-10 22:48:00,
2013-06-10 18:54:00,75.2,63.1,29.77,NNW,333,5.0,10.0,66,0.00,,,1.21,Wunderground v.1.15,2013-06-10 22:54:00,
2013-06-10 18:59:00,73.8,63.8,29.77,North,6,8.0,13.0,71,0.00,,,1.21,Wunderground v.1.15,2013-06-10 22:59:00,
2013-06-10 19:05:00,72.6,63.8,29.78,NNW,345,10.0,14.0,74,0.00,,,1.21,Wunderground v.1.15,2013-06-10 23:05:00,
2013-06-10 19:11:00,72.0,64.0,29.78,WNW,295,10.0,10.0,76,0.00,,,1.21,Wunderground v.1.15,2013-06-10 23:11:00,
2013-06-10 19:17:00,71.6,63.6,29.78,NNW,328,8.0,15.0,76,0.00,,,1.21,Wunderground v.1.15,2013-06-10 23:17:00,
2013-06-10 19:23:00,71.2,63.6,29.78,NW,305,9.0,12.0,77,0.00,,,1.21,Wunderground v.1.15,2013-06-10 23:23:00,
2013-06-10 19:29:00,71.0,63.4,29.79,NNW,335,8.0,12.0,77,0.00,,,1.21,Wunderground v.1.15,2013-06-10 23:29:00,
2013-06-10 19:35:00,70.8,63.2,29.79,NW,309,7.0,12.0,77,0.00,,,1.21,Wunderground v.1.15,2013-06-10 23:35:00,
2013-06-10 19:41:00,70.4,62.8,29.79,West,269,8.0,9.0,77,0.00,,,1.21,Wunderground v.1.15,2013-06-10 23:41:00,
2013-06-10 19:47:00,70.1,62.6,29.78,WSW,240,9.0,12.0,77,0.00,,,1.21,Wunderground v.1.15,2013-06-10 23:47:00,
2013-06-10 19:53:00,69.8,62.3,29.78,SW,235,9.0,9.0,77,0.00,,,1.21,Wunderground v.1.15,2013-06-10 23:53:00,
2013-06-10 19:58:00,69.7,62.5,29.78,WSW,246,7.0,9.0,78,0.00,,,1.21,Wunderground v.1.15,2013-06-10 23:58:00,
2013-06-10 20:04:00,69.7,62.9,29.78,SW,232,6.0,6.0,79,0.00,,,1.21,Wunderground v.1.15,2013-06-11 00:04:00,
2013-06-10 20:10:00,69.6,62.4,29.78,SW,226,5.0,5.0,78,0.00,,,1.21,Wunderground v.1.15,2013-06-11 00:10:00,
2013-06-10 20:16:00,69.9,63.1,29.78,SSW,212,4.0,5.0,79,0.00,,,1.21,Wunderground v.1.15,2013-06-11 00:16:00,
2013-06-10 20:22:00,70.2,63.7,29.78,West,259,3.0,5.0,80,0.00,,,1.21,Wunderground v.1.15,2013-06-11 00:22:00,
2013-06-10 20:27:00,70.6,63.8,29.78,SW,217,2.0,5.0,79,0.00,,,1.21,Wunderground v.1.15,2013-06-11 00:27:00,
2013-06-10 20:33:00,70.9,63.3,29.78,SW,218,1.0,5.0,77,0.00,,,1.21,Wunderground v.1.15,2013-06-11 00:33:00,
2013-06-10 20:39:00,70.6,63.8,29.78,SW,229,2.0,5.0,79,0.00,,,1.21,Wunderground v.1.15,2013-06-11 00:39:00,
2013-06-10 20:45:00,70.4,63.9,29.78,WSW,240,3.0,5.0,80,0.00,,,1.21,Wunderground v.1.15,2013-06-11 00:45:00,
2013-06-10 20:51:00,70.2,63.7,29.78,WSW,240,3.0,5.0,80,0.00,,,1.21,Wunderground v.1.15,2013-06-11 00:51:00,
2013-06-10 20:57:00,70.0,63.9,29.78,WSW,243,4.0,5.0,81,0.00,,,1.21,Wunderground v.1.15,2013-06-11 00:57:00,
2013-06-10 21:02:00,69.6,63.9,29.78,WSW,243,3.0,5.0,82,0.00,,,1.21,Wunderground v.1.15,2013-06-11 01:02:00,
2013-06-10 21:08:00,69.2,64.2,29.78,WSW,243,3.0,5.0,84,0.00,,,1.21,Wunderground v.1.15,2013-06-11 01:08:00,
2013-06-10 21:14:00,68.9,63.9,29.79,SW,226,3.0,5.0,84,0.00,,,1.21,Wunderground v.1.15,2013-06-11 01:14:00,
2013-06-10 21:20:00,68.8,63.8,29.79,WNW,300,3.0,3.0,84,0.00,,,1.21,Wunderground v.1.15,2013-06-11 01:20:00,
2013-06-10 21:26:00,68.5,63.8,29.79,WSW,244,2.0,5.0,85,0.00,,,1.21,Wunderground v.1.15,2013-06-11 01:26:00,
2013-06-10 21:33:00,68.3,63.9,29.79,WSW,247,2.0,5.0,86,0.00,,,1.21,Wunderground v.1.15,2013-06-11 01:33:00,
2013-06-10 21:39:00,68.0,64.0,29.80,SW,215,2.0,5.0,87,0.00,,,1.21,Wunderground v.1.15,2013-06-11 01:39:00,
2013-06-10 21:45:00,67.8,64.1,29.80,SSW,212,3.0,5.0,88,0.00,,,1.21,Wunderground v.1.15,2013-06-11 01:45:00,
2013-06-10 21:51:00,67.5,63.8,29.80,SW,228,2.0,5.0,88,0.00,,,1.21,Wunderground v.1.15,2013-06-11 01:51:00,
2013-06-10 21:57:00,67.3,63.9,29.80,WSW,240,3.0,5.0,89,0.00,,,1.21,Wunderground v.1.15,2013-06-11 01:57:00,
2013-06-10 22:03:00,67.2,64.2,29.81,SW,235,3.0,5.0,90,0.00,,,1.21,Wunderground v.1.15,2013-06-11 02:03:00,
2013-06-10 22:08:00,67.1,64.4,29.81,SW,232,2.0,5.0,91,0.00,,,1.21,Wunderground v.1.15,2013-06-11 02:08:00,
2013-06-10 22:14:00,67.1,64.4,29.81,WSW,240,3.0,5.0,91,0.00,,,1.21,Wunderground v.1.15,2013-06-11 02:14:00,
2013-06-10 22:20:00,67.0,64.3,29.81,WSW,256,3.0,3.0,91,0.00,,,1.21,Wunderground v.1.15,2013-06-11 02:20:00,
2013-06-10 22:26:00,66.9,64.5,29.82,WSW,255,2.0,5.0,92,0.00,,,1.21,Wunderground v.1.15,2013-06-11 02:26:00,
2013-06-10 22:32:00,66.9,64.5,29.82,West,271,1.0,5.0,92,0.00,,,1.21,Wunderground v.1.15,2013-06-11 02:32:00,
2013-06-10 22:38:00,66.9,64.5,29.82,West,266,1.0,5.0,92,0.00,,,1.21,Wunderground v.1.15,2013-06-11 02:38:00,
2013-06-10 22:44:00,66.8,64.4,29.82,West,260,2.0,5.0,92,0.00,,,1.21,Wunderground v.1.15,2013-06-11 02:44:00,
2013-06-10 22:49:00,66.8,64.4,29.82,WSW,255,2.0,5.0,92,0.00,,,1.21,Wunderground v.1.15,2013-06-11 02:49:00,
2013-06-10 22:55:00,66.8,64.4,29.83,SW,233,1.0,5.0,92,0.00,,,1.21,Wunderground v.1.15,2013-06-11 02:55:00,
2013-06-10 23:00:00,66.7,64.3,29.83,West,271,1.0,1.0,92,0.00,,,1.21,Wunderground v.1.15,2013-06-11 03:00:00,
2013-06-10 23:06:00,66.6,64.2,29.83,West,274,1.0,5.0,92,0.00,,,1.21,Wunderground v.1.15,2013-06-11 03:06:00,
2013-06-10 23:12:00,66.6,64.5,29.83,West,259,1.0,5.0,93,0.00,,,1.21,Wunderground v.1.15,2013-06-11 03:12:00,
2013-06-10 23:18:00,66.5,64.4,29.83,WSW,246,1.0,5.0,93,0.00,,,1.21,Wunderground v.1.15,2013-06-11 03:18:00,
2013-06-10 23:24:00,66.3,64.2,29.83,SW,228,1.0,5.0,93,0.00,,,1.21,Wunderground v.1.15,2013-06-11 03:24:00,
2013-06-10 23:30:00,66.2,64.1,29.83,West,274,1.0,5.0,93,0.00,,,1.21,Wunderground v.1.15,2013-06-11 03:30:00,
2013-06-10 23:35:00,66.2,64.1,29.83,West,262,1.0,5.0,93,0.00,,,1.21,Wunderground v.1.15,2013-06-11 03:35:00,
2013-06-10 23:41:00,66.2,64.1,29.83,West,260,1.0,5.0,93,0.00,,,1.21,Wunderground v.1.15,2013-06-11 03:41:00,
2013-06-10 23:47:00,66.1,64.0,29.84,NW,309,1.0,5.0,93,0.00,,,1.21,Wunderground v.1.15,2013-06-11 03:47:00,
2013-06-10 23:52:00,66.0,63.9,29.84,NW,309,0.0,5.0,93,0.00,,,1.21,Wunderground v.1.15,2013-06-11 03:52:00,
2013-06-10 23:58:00,65.8,63.7,29.84,NW,308,0.0,5.0,93,0.00,,,1.21,Wunderground v.1.15,2013-06-11 03:58:00,